Location: Belfast
(54.5830°N, 5.9330°W)
Time: 14:09:58
(UTC+01:00)

ISS - Pass Details

Date: 23 May 2017
Orbit: 402 x 408 km, 51.6° (Epoch: 26 May)

Event Time Altitude Azimuth Distance (km) Brightness Sun altitude
Exits shadow 01:47:42 10° 251° (WSW) 1,445 -1.3 -14.6°
Maximum altitude 01:50:50 49° 175° (S) 532 -3.7 -14.6°
Drops below altitude 10° 01:54:02 10° 99° (E) 1,467 -1.0 -14.5°
Sets 01:56:09 0° 94° (E) 2,326 0.1 -14.4°
